Location: Pasadena, ca
(34.1243°N, 118.1037°W)
Time: 02:39:56
(UTC-07:00)

ISS - Pass Details

Date: 13 October 2017
Orbit: 400 x 408 km, 51.6° (Epoch: 24 October)

Event Time Altitude Azimuth Distance (km) Brightness Sun altitude
Rises 20:25:23 0° 309° (NW) 2,324 0.9 -26.6°
Reaches altitude 10° 20:27:29 10° 304° (NW) 1,463 -0.2 -27.1°
Enters shadow 20:28:41 20° 298° (WNW) 997 -1.2 -27.3°
